"Sample Date","Sample Time","Sensor Name","Sample Value","Units","Flow Rate","Sample Interval","Sample Volume","Laser Status","Number Channels","Micron Size 0","Counts/Channel 0","Micron Size 1","Counts/Channel 1","Micron Size 2","Counts/Channel 2","Micron Size 3","Counts/Channel 3","Micron Size 4","Counts/Channel 4","Micron Size 5","Counts/Channel 5","Micron Size 6","Counts/Channel 6","Micron Size 7","Counts/Channel 7","Micron Size 8","Counts/Channel 8","Micron Size 9","Counts/Channel 9","Micron Size 10","Counts/Channel 10","Micron Size 11","Counts/Channel 11","Micron Size 12","Counts/Channel 12","Micron Size 13","Counts/Channel 13","Micron Size 14","Counts/Channel 14","Micron Size 15","Counts/Channel 15","Micron Size 16","Counts/Channel 16","Micron Size 17","Counts/Channel 17","Micron Size 18","Counts/Channel 18","Micron Size 19","Counts/Channel 19","Micron Size 20","Counts/Channel 20","Micron Size 21","Counts/Channel 21","Micron Size 22","Counts/Channel 22","Micron Size 23","Counts/Channel 23","Micron Size 24","Counts/Channel 24","Micron Size 25","Counts/Channel 25","Micron Size 26","Counts/Channel 26","Micron Size 27","Counts/Channel 27","Micron Size 28","Counts/Channel 28","Micron Size 29","Counts/Channel 29","Micron Size 30","Counts/Channel 30","Micron Size 31","Counts/Channel 31"
"07/10/06","11:00:02","AMMA06",36589.000,"cc",28342.799,6.00,2834.280,1,6,0.100,18098.000,0.200,15622.000,0.300,2668.000,0.500,161.000,1.000,40.000,5.000,0
"07/10/06","11:00:08","AMMA06",36798.000,"cc",28344.773,6.00,2834.478,1,6,0.100,18289.000,0.200,15650.000,0.300,2672.000,0.500,128.000,1.000,59.000,5.000,0
"07/10/06","11:00:14","AMMA06",36952.000,"cc",28281.981,6.00,2828.198,1,6,0.100,18462.000,0.200,15619.000,0.300,2706.000,0.500,113.000,1.000,52.000,5.000,0
"07/10/06","11:00:20","AMMA06",37019.000,"cc",28327.768,6.00,2832.777,1,6,0.100,18396.000,0.200,15853.000,0.300,2602.000,0.500,119.000,1.000,49.000,5.000,0
"07/10/06","11:00:26","AMMA06",36810.000,"cc",28323.656,6.00,2832.366,1,6,0.100,18350.000,0.200,15653.000,0.300,2635.000,0.500,124.000,1.000,48.000,5.000,0
"07/10/06","11:00:32","AMMA06",37316.000,"cc",28335.801,6.00,2833.580,1,6,0.100,18643.000,0.200,15908.000,0.300,2594.000,0.500,123.000,1.000,48.000,5.000,0
"07/10/06","11:00:38","AMMA06",36643.000,"cc",28282.553,6.00,2828.255,1,6,0.100,18347.000,0.200,15467.000,0.300,2659.000,0.500,122.000,1.000,48.000,5.000,0
"07/10/06","11:00:44","AMMA06",36946.000,"cc",28315.762,6.00,2831.576,1,6,0.100,18655.000,0.200,15499.000,0.300,2624.000,0.500,122.000,1.000,46.000,5.000,0
"07/10/06","11:00:50","AMMA06",36939.000,"cc",28356.717,6.00,2835.672,1,6,0.100,18585.000,0.200,15669.000,0.300,2523.000,0.500,115.000,1.000,47.000,5.000,0
"07/10/06","11:00:56","AMMA06",37182.000,"cc",28314.305,6.00,2831.431,1,6,0.100,18551.000,0.200,15734.000,0.300,2725.000,0.500,129.000,1.000,43.000,5.000,0
"07/10/06","11:01:01","AMMA06",36693.000,"cc",28304.393,6.00,2830.440,1,6,0.100,18599.000,0.200,15449.000,0.300,2486.000,0.500,106.000,1.000,53.000,5.000,0
"07/10/06","11:01:07","AMMA06",37013.000,"cc",28352.731,6.00,2835.273,1,6,0.100,18766.000,0.200,15558.000,0.300,2530.000,0.500,116.000,1.000,43.000,5.000,0
"07/10/06","11:01:13","AMMA06",36844.000,"cc",28299.701,6.00,2829.970,1,6,0.100,18787.000,0.200,15352.000,0.300,2542.000,0.500,104.000,1.000,59.000,5.000,0
"07/10/06","11:01:19","AMMA06",36670.000,"cc",28323.686,6.00,2832.369,1,6,0.100,18595.000,0.200,15432.000,0.300,2484.000,0.500,112.000,1.000,47.000,5.000,0
"07/10/06","11:01:25","AMMA06",36835.000,"cc",28349.916,6.00,2834.992,1,6,0.100,18677.000,0.200,15344.000,0.300,2653.000,0.500,115.000,1.000,46.000,5.000,0
"07/10/06","11:01:31","AMMA06",36902.000,"cc",28249.420,6.00,2824.942,1,6,0.100,18890.000,0.200,15378.000,0.300,2461.000,0.500,127.000,1.000,46.000,5.000,0
"07/10/06","11:01:37","AMMA06",37216.000,"cc",28313.357,6.00,2831.336,1,6,0.100,19077.000,0.200,15480.000,0.300,2494.000,0.500,105.000,1.000,60.000,5.000,0
"07/10/06","11:01:43","AMMA06",37214.000,"cc",28292.416,6.00,2829.242,1,6,0.100,19011.000,0.200,15521.000,0.300,2492.000,0.500,128.000,1.000,62.000,5.000,0
"07/10/06","11:01:49","AMMA06",36523.000,"cc",28317.856,6.00,2831.786,1,6,0.100,18765.000,0.200,15098.000,0.300,2503.000,0.500,111.000,1.000,46.000,5.000,0
"07/10/06","11:01:55","AMMA06",36546.000,"cc",28301.451,6.00,2830.145,1,6,0.100,18958.000,0.200,14971.000,0.300,2446.000,0.500,122.000,1.000,49.000,5.000,0
"07/10/06","11:02:01","AMMA06",36922.000,"cc",28315.135,6.00,2831.514,1,6,0.100,19027.000,0.200,15368.000,0.300,2409.000,0.500,82.000,1.000,36.000,5.000,0
"07/10/06","11:02:07","AMMA06",36625.000,"cc",28347.967,6.00,2834.797,1,6,0.100,18901.000,0.200,15181.000,0.300,2379.000,0.500,114.000,1.000,50.000,5.000,0
"07/10/06","11:02:13","AMMA06",36759.000,"cc",28333.406,6.00,2833.341,1,6,0.100,18933.000,0.200,15235.000,0.300,2441.000,0.500,96.000,1.000,54.000,5.000,0
"07/10/06","11:02:19","AMMA06",36917.000,"cc",28263.619,6.00,2826.362,1,6,0.100,19077.000,0.200,15226.000,0.300,2471.000,0.500,95.000,1.000,48.000,5.000,0
"07/10/06","11:02:25","AMMA06",36661.000,"cc",28317.445,6.00,2831.745,1,6,0.100,18936.000,0.200,15288.000,0.300,2278.000,0.500,115.000,1.000,44.000,5.000,0
"07/10/06","11:02:31","AMMA06",36530.000,"cc",28346.738,6.00,2834.674,1,6,0.100,18984.000,0.200,15005.000,0.300,2391.000,0.500,99.000,1.000,51.000,5.000,0
"07/10/06","11:02:37","AMMA06",36868.000,"cc",28315.190,6.00,2831.519,1,6,0.100,19127.000,0.200,15172.000,0.300,2418.000,0.500,107.000,1.000,44.000,5.000,0
"07/10/06","11:02:43","AMMA06",36741.000,"cc",28323.902,6.00,2832.390,1,6,0.100,18995.000,0.200,15197.000,0.300,2381.000,0.500,130.000,1.000,38.000,5.000,0
"07/10/06","11:02:49","AMMA06",36414.000,"cc",28371.512,6.00,2837.151,1,6,0.100,18815.000,0.200,15052.000,0.300,2385.000,0.500,105.000,1.000,57.000,5.000,0
"07/10/06","11:02:55","AMMA06",36326.000,"cc",28276.686,6.00,2827.669,1,6,0.100,18803.000,0.200,14937.000,0.300,2436.000,0.500,109.000,1.000,41.000,5.000,0
"07/10/06","11:03:01","AMMA06",36716.000,"cc",28290.291,6.00,2829.029,1,6,0.100,19106.000,0.200,15049.000,0.300,2365.000,0.500,132.000,1.000,64.000,5.000,0
"07/10/06","11:03:07","AMMA06",37372.000,"cc",28312.143,6.00,2831.214,1,6,0.100,19388.000,0.200,15459.000,0.300,2376.000,0.500,105.000,1.000,44.000,5.000,0
"07/10/06","11:03:13","AMMA06",36993.000,"cc",28325.238,6.00,2832.524,1,6,0.100,19254.000,0.200,15237.000,0.300,2348.000,0.500,104.000,1.000,50.000,5.000,0
"07/10/06","11:03:19","AMMA06",36913.000,"cc",28271.162,6.00,2827.117,1,6,0.100,19285.000,0.200,15167.000,0.300,2303.000,0.500,117.000,1.000,41.000,5.000,0
"07/10/06","11:03:25","AMMA06",37062.000,"cc",28328.613,6.00,2832.862,1,6,0.100,19279.000,0.200,15212.000,0.300,2392.000,0.500,121.000,1.000,58.000,5.000,0
"07/10/06","11:03:31","AMMA06",37011.000,"cc",28295.867,6.00,2829.587,1,6,0.100,19300.000,0.200,15138.000,0.300,2416.000,0.500,107.000,1.000,50.000,5.000,0
"07/10/06","11:03:37","AMMA06",36980.000,"cc",28337.881,6.00,2833.788,1,6,0.100,19330.000,0.200,15185.000,0.300,2291.000,0.500,123.000,1.000,51.000,5.000,0
"07/10/06","11:03:43","AMMA06",36771.000,"cc",28335.143,6.00,2833.514,1,6,0.100,19013.000,0.200,15161.000,0.300,2396.000,0.500,146.000,1.000,55.000,5.000,0
"07/10/06","11:03:49","AMMA06",36957.000,"cc",28373.486,6.00,2837.349,1,6,0.100,19088.000,0.200,15362.000,0.300,2334.000,0.500,117.000,1.000,56.000,5.000,0
"07/10/06","11:03:55","AMMA06",37347.000,"cc",28285.387,6.00,2828.539,1,6,0.100,19515.000,0.200,15227.000,0.300,2428.000,0.500,126.000,1.000,51.000,5.000,0
"07/10/06","11:04:01","AMMA06",36886.000,"cc",28295.494,6.00,2829.550,1,6,0.100,19249.000,0.200,15111.000,0.300,2365.000,0.500,114.000,1.000,47.000,5.000,0
"07/10/06","11:04:07","AMMA06",36729.000,"cc",28286.891,6.00,2828.689,1,6,0.100,19059.000,0.200,15139.000,0.300,2345.000,0.500,141.000,1.000,45.000,5.000,0
"07/10/06","11:04:13","AMMA06",36972.000,"cc",28341.147,6.00,2834.115,1,6,0.100,19339.000,0.200,15161.000,0.300,2310.000,0.500,113.000,1.000,49.000,5.000,0
"07/10/06","11:04:19","AMMA06",37110.000,"cc",28322.674,6.00,2832.268,1,6,0.100,19476.000,0.200,15144.000,0.300,2330.000,0.500,113.000,1.000,47.000,5.000,0
"07/10/06","11:04:25","AMMA06",36950.000,"cc",28324.555,6.00,2832.456,1,6,0.100,19310.000,0.200,15060.000,0.300,2410.000,0.500,121.000,1.000,49.000,5.000,0
"07/10/06","11:04:31","AMMA06",37110.000,"cc",28300.496,6.00,2830.050,1,6,0.100,19379.000,0.200,15146.000,0.300,2435.000,0.500,96.000,1.000,54.000,5.000,0
"07/10/06","11:04:37","AMMA06",37173.000,"cc",28320.203,6.00,2832.021,1,6,0.100,19252.000,0.200,15239.000,0.300,2517.000,0.500,114.000,1.000,51.000,5.000,0
"07/10/06","11:04:43","AMMA06",37443.000,"cc",28347.373,6.00,2834.738,1,6,0.100,19702.000,0.200,15203.000,0.300,2390.000,0.500,105.000,1.000,43.000,5.000,0
"07/10/06","11:04:49","AMMA06",37247.000,"cc",28328.438,6.00,2832.844,1,6,0.100,19522.000,0.200,15153.000,0.300,2432.000,0.500,100.000,1.000,40.000,5.000,0
"07/10/06","11:04:55","AMMA06",37779.000,"cc",28313.092,6.00,2831.309,1,6,0.100,19835.000,0.200,15337.000,0.300,2442.000,0.500,115.000,1.000,50.000,5.000,0
"07/10/06","11:05:01","AMMA06",36933.000,"cc",28330.512,6.00,2833.051,1,6,0.100,19109.000,0.200,15186.000,0.300,2465.000,0.500,126.000,1.000,47.000,5.000,0
"07/10/06","11:05:07","AMMA06",36935.000,"cc",28292.283,6.00,2829.229,1,6,0.100,19235.000,0.200,15156.000,0.300,2372.000,0.500,127.000,1.000,45.000,5.000,0
"07/10/06","11:05:13","AMMA06",37141.000,"cc",28312.400,6.00,2831.240,1,6,0.100,19137.000,0.200,15432.000,0.300,2407.000,0.500,114.000,1.000,51.000,5.000,0
"07/10/06","11:05:19","AMMA06",36949.000,"cc",28346.357,6.00,2834.636,1,6,0.100,19105.000,0.200,15278.000,0.300,2412.000,0.500,113.000,1.000,41.000,5.000,0
"07/10/06","11:05:25","AMMA06",36873.000,"cc",28362.647,6.00,2836.265,1,6,0.100,18942.000,0.200,15283.000,0.300,2481.000,0.500,115.000,1.000,52.000,5.000,0
"07/10/06","11:05:31","AMMA06",37041.000,"cc",28294.647,6.00,2829.465,1,6,0.100,19304.000,0.200,15121.000,0.300,2438.000,0.500,120.000,1.000,58.000,5.000,0
"07/10/06","11:05:37","AMMA06",37270.000,"cc",28289.223,6.00,2828.922,1,6,0.100,19325.000,0.200,15357.000,0.300,2427.000,0.500,124.000,1.000,37.000,5.000,0
"07/10/06","11:05:43","AMMA06",37441.000,"cc",28285.971,6.00,2828.597,1,6,0.100,19254.000,0.200,15427.000,0.300,2580.000,0.500,122.000,1.000,58.000,5.000,0
"07/10/06","11:05:49","AMMA06",37481.000,"cc",28315.453,6.00,2831.545,1,6,0.100,19309.000,0.200,15554.000,0.300,2441.000,0.500,129.000,1.000,48.000,5.000,0
"07/10/06","11:05:55","AMMA06",36946.000,"cc",28365.547,6.00,2836.555,1,6,0.100,19030.000,0.200,15320.000,0.300,2453.000,0.500,98.000,1.000,45.000,5.000,0
"07/10/06","11:06:01","AMMA06",36931.000,"cc",28309.522,6.00,2830.952,1,6,0.100,18954.000,0.200,15251.000,0.300,2528.000,0.500,126.000,1.000,72.000,5.000,0
"07/10/06","11:06:07","AMMA06",36986.000,"cc",28285.199,6.00,2828.520,1,6,0.100,18900.000,0.200,15433.000,0.300,2489.000,0.500,114.000,1.000,50.000,5.000,0
"07/10/06","11:06:13","AMMA06",36863.000,"cc",28286.637,6.00,2828.664,1,6,0.100,18985.000,0.200,15268.000,0.300,2459.000,0.500,106.000,1.000,45.000,5.000,0
"07/10/06","11:06:19","AMMA06",37203.000,"cc",28314.586,6.00,2831.459,1,6,0.100,19189.000,0.200,15473.000,0.300,2401.000,0.500,99.000,1.000,41.000,5.000,0
"07/10/06","11:06:25","AMMA06",36848.000,"cc",28370.633,6.00,2837.064,1,6,0.100,18910.000,0.200,15239.000,0.300,2527.000,0.500,129.000,1.000,43.000,5.000,0
"07/10/06","11:06:31","AMMA06",37126.000,"cc",28359.061,6.00,2835.906,1,6,0.100,19163.000,0.200,15218.000,0.300,2576.000,0.500,120.000,1.000,49.000,5.000,0
"07/10/06","11:06:37","AMMA06",36814.000,"cc",28336.367,6.00,2833.637,1,6,0.100,18946.000,0.200,15247.000,0.300,2448.000,0.500,118.000,1.000,55.000,5.000,0
"07/10/06","11:06:43","AMMA06",37289.000,"cc",28239.676,6.00,2823.968,1,6,0.100,19174.000,0.200,15379.000,0.300,2553.000,0.500,123.000,1.000,60.000,5.000,0
"07/10/06","11:06:49","AMMA06",37133.000,"cc",28336.111,6.00,2833.611,1,6,0.100,19121.000,0.200,15362.000,0.300,2471.000,0.500,130.000,1.000,49.000,5.000,0
"07/10/06","11:06:55","AMMA06",36986.000,"cc",28371.830,6.00,2837.183,1,6,0.100,19035.000,0.200,15371.000,0.300,2445.000,0.500,97.000,1.000,38.000,5.000,0
"07/10/06","11:07:01","AMMA06",37055.000,"cc",28333.299,6.00,2833.330,1,6,0.100,19116.000,0.200,15265.000,0.300,2509.000,0.500,123.000,1.000,42.000,5.000,0
"07/10/06","11:07:07","AMMA06",37137.000,"cc",28274.971,6.00,2827.497,1,6,0.100,18825.000,0.200,15682.000,0.300,2465.000,0.500,119.000,1.000,46.000,5.000,0
"07/10/06","11:07:13","AMMA06",36991.000,"cc",28311.791,6.00,2831.179,1,6,0.100,19061.000,0.200,15307.000,0.300,2483.000,0.500,103.000,1.000,37.000,5.000,0
"07/10/06","11:07:19","AMMA06",37110.000,"cc",28326.881,6.00,2832.688,1,6,0.100,19083.000,0.200,15448.000,0.300,2418.000,0.500,115.000,1.000,46.000,5.000,0
"07/10/06","11:07:25","AMMA06",37245.000,"cc",28290.096,6.00,2829.010,1,6,0.100,19088.000,0.200,15514.000,0.300,2499.000,0.500,97.000,1.000,47.000,5.000,0
"07/10/06","11:07:31","AMMA06",36997.000,"cc",28334.986,6.00,2833.499,1,6,0.100,19314.000,0.200,15112.000,0.300,2403.000,0.500,124.000,1.000,44.000,5.000,0
"07/10/06","11:07:37","AMMA06",36705.000,"cc",28351.922,6.00,2835.192,1,6,0.100,18815.000,0.200,15309.000,0.300,2423.000,0.500,117.000,1.000,41.000,5.000,0
"07/10/06","11:07:43","AMMA06",37309.000,"cc",28297.334,6.00,2829.734,1,6,0.100,19628.000,0.200,15136.000,0.300,2376.000,0.500,118.000,1.000,51.000,5.000,0
"07/10/06","11:07:49","AMMA06",36867.000,"cc",28288.639,6.00,2828.864,1,6,0.100,19258.000,0.200,15035.000,0.300,2444.000,0.500,95.000,1.000,35.000,5.000,0
"07/10/06","11:07:55","AMMA06",36833.000,"cc",28326.375,6.00,2832.638,1,6,0.100,19143.000,0.200,15069.000,0.300,2453.000,0.500,123.000,1.000,45.000,5.000,0
"07/10/06","11:08:01","AMMA06",36862.000,"cc",28271.568,6.00,2827.157,1,6,0.100,18915.000,0.200,15364.000,0.300,2439.000,0.500,103.000,1.000,41.000,5.000,0
"07/10/06","11:08:07","AMMA06",37022.000,"cc",28326.285,6.00,2832.629,1,6,0.100,19129.000,0.200,15277.000,0.300,2423.000,0.500,141.000,1.000,52.000,5.000,0
"07/10/06","11:08:13","AMMA06",36708.000,"cc",28340.859,6.00,2834.086,1,6,0.100,18982.000,0.200,15220.000,0.300,2350.000,0.500,113.000,1.000,43.000,5.000,0
"07/10/06","11:08:19","AMMA06",37167.000,"cc",28246.363,6.00,2824.637,1,6,0.100,19247.000,0.200,15263.000,0.300,2503.000,0.500,110.000,1.000,44.000,5.000,0
"07/10/06","11:08:25","AMMA06",36959.000,"cc",28294.803,6.00,2829.481,1,6,0.100,19124.000,0.200,15150.000,0.300,2487.000,0.500,146.000,1.000,52.000,5.000,0
"07/10/06","11:08:31","AMMA06",37036.000,"cc",28336.859,6.00,2833.686,1,6,0.100,19062.000,0.200,15408.000,0.300,2417.000,0.500,103.000,1.000,46.000,5.000,0
"07/10/06","11:08:37","AMMA06",37157.000,"cc",28300.777,6.00,2830.078,1,6,0.100,19375.000,0.200,15208.000,0.300,2415.000,0.500,109.000,1.000,50.000,5.000,0
"07/10/06","11:08:43","AMMA06",37046.000,"cc",28317.350,6.00,2831.735,1,6,0.100,19326.000,0.200,15193.000,0.300,2372.000,0.500,103.000,1.000,52.000,5.000,0
"07/10/06","11:08:49","AMMA06",36920.000,"cc",28333.043,6.00,2833.304,1,6,0.100,19201.000,0.200,15115.000,0.300,2439.000,0.500,113.000,1.000,52.000,5.000,0
"07/10/06","11:08:55","AMMA06",37061.000,"cc",28337.137,6.00,2833.714,1,6,0.100,19387.000,0.200,15107.000,0.300,2394.000,0.500,123.000,1.000,50.000,5.000,0
"07/10/06","11:09:01","AMMA06",37089.000,"cc",28378.285,6.00,2837.829,1,6,0.100,19405.000,0.200,15155.000,0.300,2381.000,0.500,99.000,1.000,49.000,5.000,0
"07/10/06","11:09:07","AMMA06",36858.000,"cc",28313.408,6.00,2831.341,1,6,0.100,19213.000,0.200,15162.000,0.300,2332.000,0.500,108.000,1.000,43.000,5.000,0
"07/10/06","11:09:13","AMMA06",36759.000,"cc",28248.199,6.00,2824.820,1,6,0.100,19016.000,0.200,15221.000,0.300,2372.000,0.500,107.000,1.000,43.000,5.000,0
"07/10/06","11:09:19","AMMA06",37015.000,"cc",28293.902,6.00,2829.390,1,6,0.100,19383.000,0.200,15103.000,0.300,2362.000,0.500,125.000,1.000,42.000,5.000,0
"07/10/06","11:09:25","AMMA06",36973.000,"cc",28372.416,6.00,2837.242,1,6,0.100,19433.000,0.200,15048.000,0.300,2327.000,0.500,119.000,1.000,46.000,5.000,0
"07/10/06","11:09:31","AMMA06",36691.000,"cc",28319.402,6.00,2831.940,1,6,0.100,19114.000,0.200,15123.000,0.300,2306.000,0.500,108.000,1.000,40.000,5.000,0
"07/10/06","11:09:37","AMMA06",36945.000,"cc",28307.850,6.00,2830.785,1,6,0.100,19492.000,0.200,15009.000,0.300,2289.000,0.500,115.000,1.000,40.000,5.000,0
"07/10/06","11:09:43","AMMA06",37127.000,"cc",28329.242,6.00,2832.924,1,6,0.100,19432.000,0.200,15208.000,0.300,2320.000,0.500,118.000,1.000,49.000,5.000,0
"07/10/06","11:09:49","AMMA06",36591.000,"cc",28290.486,6.00,2829.049,1,6,0.100,19081.000,0.200,15017.000,0.300,2349.000,0.500,96.000,1.000,48.000,5.000,0
"07/10/06","11:09:55","AMMA06",36809.000,"cc",28297.477,6.00,2829.748,1,6,0.100,19337.000,0.200,14994.000,0.300,2304.000,0.500,126.000,1.000,48.000,5.000,0
"07/10/06","11:10:01","AMMA06",36689.000,"cc",28309.740,6.00,2830.974,1,6,0.100,19164.000,0.200,15079.000,0.300,2276.000,0.500,129.000,1.000,41.000,5.000,0
"07/10/06","11:10:07","AMMA06",37082.000,"cc",28348.111,6.00,2834.811,1,6,0.100,19307.000,0.200,15273.000,0.300,2356.000,0.500,107.000,1.000,39.000,5.000,0
"07/10/06","11:10:13","AMMA06",37059.000,"cc",28328.326,6.00,2832.833,1,6,0.100,19531.000,0.200,15035.000,0.300,2323.000,0.500,136.000,1.000,34.000,5.000,0
"07/10/06","11:10:19","AMMA06",36870.000,"cc",28300.609,6.00,2830.061,1,6,0.100,19204.000,0.200,15095.000,0.300,2415.000,0.500,105.000,1.000,51.000,5.000,0
"07/10/06","11:10:25","AMMA06",37024.000,"cc",28301.420,6.00,2830.142,1,6,0.100,19159.000,0.200,15341.000,0.300,2385.000,0.500,95.000,1.000,44.000,5.000,0
"07/10/06","11:10:31","AMMA06",37084.000,"cc",28330.359,6.00,2833.036,1,6,0.100,19380.000,0.200,15155.000,0.300,2393.000,0.500,107.000,1.000,49.000,5.000,0
"07/10/06","11:10:37","AMMA06",36698.000,"cc",28322.158,6.00,2832.216,1,6,0.100,19190.000,0.200,15013.000,0.300,2334.000,0.500,116.000,1.000,45.000,5.000,0
"07/10/06","11:10:43","AMMA06",36414.000,"cc",28319.184,6.00,2831.919,1,6,0.100,18963.000,0.200,15003.000,0.300,2277.000,0.500,132.000,1.000,39.000,5.000,0
"07/10/06","11:10:49","AMMA06",37071.000,"cc",28268.061,6.00,2826.806,1,6,0.100,19142.000,0.200,15239.000,0.300,2511.000,0.500,134.000,1.000,45.000,5.000,0
"07/10/06","11:10:55","AMMA06",36977.000,"cc",28344.990,6.00,2834.499,1,6,0.100,19307.000,0.200,15126.000,0.300,2397.000,0.500,103.000,1.000,44.000,5.000,0
"07/10/06","11:11:01","AMMA06",37057.000,"cc",28382.535,6.00,2838.254,1,6,0.100,19060.000,0.200,15436.000,0.300,2389.000,0.500,123.000,1.000,49.000,5.000,0
"07/10/06","11:11:07","AMMA06",36613.000,"cc",28323.162,6.00,2832.316,1,6,0.100,18756.000,0.200,15270.000,0.300,2407.000,0.500,128.000,1.000,52.000,5.000,0
"07/10/06","11:11:13","AMMA06",36834.000,"cc",28326.881,6.00,2832.688,1,6,0.100,19126.000,0.200,15104.000,0.300,2469.000,0.500,89.000,1.000,46.000,5.000,0
"07/10/06","11:11:19","AMMA06",37000.000,"cc",28305.945,6.00,2830.595,1,6,0.100,19196.000,0.200,15201.000,0.300,2465.000,0.500,93.000,1.000,45.000,5.000,0
"07/10/06","11:11:25","AMMA06",36913.000,"cc",28314.852,6.00,2831.485,1,6,0.100,19186.000,0.200,15116.000,0.300,2456.000,0.500,112.000,1.000,43.000,5.000,0
"07/10/06","11:11:31","AMMA06",37000.000,"cc",28272.293,6.00,2827.230,1,6,0.100,19118.000,0.200,15352.000,0.300,2358.000,0.500,119.000,1.000,53.000,5.000,0
"07/10/06","11:11:37","AMMA06",37042.000,"cc",28375.014,6.00,2837.502,1,6,0.100,19388.000,0.200,15115.000,0.300,2374.000,0.500,115.000,1.000,50.000,5.000,0
"07/10/06","11:11:43","AMMA06",36891.000,"cc",28288.750,6.00,2828.875,1,6,0.100,19098.000,0.200,15220.000,0.300,2426.000,0.500,107.000,1.000,40.000,5.000,0
"07/10/06","11:11:49","AMMA06",36851.000,"cc",28303.789,6.00,2830.379,1,6,0.100,18841.000,0.200,15452.000,0.300,2392.000,0.500,121.000,1.000,45.000,5.000,0
"07/10/06","11:11:55","AMMA06",36749.000,"cc",28344.752,6.00,2834.475,1,6,0.100,19033.000,0.200,15127.000,0.300,2452.000,0.500,97.000,1.000,40.000,5.000,0
"07/10/06","11:12:01","AMMA06",36966.000,"cc",28349.193,6.00,2834.919,1,6,0.100,19093.000,0.200,15284.000,0.300,2437.000,0.500,112.000,1.000,40.000,5.000,0
"07/10/06","11:12:07","AMMA06",36937.000,"cc",28300.865,6.00,2830.087,1,6,0.100,18871.000,0.200,15432.000,0.300,2489.000,0.500,101.000,1.000,44.000,5.000,0
"07/10/06","11:12:13","AMMA06",36638.000,"cc",28329.266,6.00,2832.927,1,6,0.100,18823.000,0.200,15146.000,0.300,2525.000,0.500,94.000,1.000,50.000,5.000,0
"07/10/06","11:12:19","AMMA06",36843.000,"cc",28267.973,6.00,2826.797,1,6,0.100,18924.000,0.200,15197.000,0.300,2530.000,0.500,134.000,1.000,58.000,5.000,0
"07/10/06","11:12:25","AMMA06",37045.000,"cc",28267.352,6.00,2826.735,1,6,0.100,18818.000,0.200,15540.000,0.300,2518.000,0.500,136.000,1.000,33.000,5.000,0
"07/10/06","11:12:31","AMMA06",37010.000,"cc",28334.443,6.00,2833.445,1,6,0.100,19023.000,0.200,15316.000,0.300,2492.000,0.500,124.000,1.000,55.000,5.000,0
"07/10/06","11:12:37","AMMA06",36871.000,"cc",28348.387,6.00,2834.839,1,6,0.100,19139.000,0.200,15098.000,0.300,2494.000,0.500,94.000,1.000,46.000,5.000,0
"07/10/06","11:12:43","AMMA06",37118.000,"cc",28328.482,6.00,2832.848,1,6,0.100,19108.000,0.200,15330.000,0.300,2515.000,0.500,125.000,1.000,40.000,5.000,0
"07/10/06","11:12:49","AMMA06",37179.000,"cc",28306.850,6.00,2830.685,1,6,0.100,19156.000,0.200,15426.000,0.300,2431.000,0.500,115.000,1.000,51.000,5.000,0
"07/10/06","11:12:55","AMMA06",37165.000,"cc",28279.844,6.00,2827.985,1,6,0.100,19288.000,0.200,15217.000,0.300,2514.000,0.500,106.000,1.000,40.000,5.000,0
"07/10/06","11:13:01","AMMA06",37052.000,"cc",28326.990,6.00,2832.699,1,6,0.100,19175.000,0.200,15261.000,0.300,2453.000,0.500,120.000,1.000,43.000,5.000,0
"07/10/06","11:13:07","AMMA06",37020.000,"cc",28370.533,6.00,2837.054,1,6,0.100,19224.000,0.200,15243.000,0.300,2394.000,0.500,106.000,1.000,53.000,5.000,0
"07/10/06","11:13:13","AMMA06",36912.000,"cc",28290.621,6.00,2829.062,1,6,0.100,19233.000,0.200,15150.000,0.300,2373.000,0.500,109.000,1.000,47.000,5.000,0
"07/10/06","11:13:19","AMMA06",36923.000,"cc",28320.154,6.00,2832.016,1,6,0.100,19012.000,0.200,15331.000,0.300,2435.000,0.500,106.000,1.000,39.000,5.000,0
"07/10/06","11:13:25","AMMA06",36906.000,"cc",28312.039,6.00,2831.204,1,6,0.100,19044.000,0.200,15258.000,0.300,2449.000,0.500,107.000,1.000,48.000,5.000,0
"07/10/06","11:13:31","AMMA06",36986.000,"cc",28319.606,6.00,2831.961,1,6,0.100,18990.000,0.200,15443.000,0.300,2376.000,0.500,134.000,1.000,43.000,5.000,0
"07/10/06","11:13:37","AMMA06",36970.000,"cc",28298.822,6.00,2829.882,1,6,0.100,19307.000,0.200,15142.000,0.300,2381.000,0.500,105.000,1.000,35.000,5.000,0
"07/10/06","11:13:43","AMMA06",37125.000,"cc",28360.967,6.00,2836.097,1,6,0.100,19388.000,0.200,15247.000,0.300,2343.000,0.500,114.000,1.000,33.000,5.000,0
"07/10/06","11:13:49","AMMA06",37075.000,"cc",28337.154,6.00,2833.716,1,6,0.100,19272.000,0.200,15211.000,0.300,2431.000,0.500,111.000,1.000,50.000,5.000,0
"07/10/06","11:13:55","AMMA06",36541.000,"cc",28280.742,6.00,2828.075,1,6,0.100,18879.000,0.200,15082.000,0.300,2442.000,0.500,107.000,1.000,31.000,5.000,0
"07/10/06","11:14:01","AMMA06",37073.000,"cc",28307.861,6.00,2830.786,1,6,0.100,19368.000,0.200,15148.000,0.300,2399.000,0.500,102.000,1.000,56.000,5.000,0
"07/10/06","11:14:07","AMMA06",36775.000,"cc",28306.430,6.00,2830.643,1,6,0.100,19314.000,0.200,14937.000,0.300,2369.000,0.500,104.000,1.000,51.000,5.000,0
"07/10/06","11:14:13","AMMA06",37084.000,"cc",28303.129,6.00,2830.313,1,6,0.100,19586.000,0.200,14961.000,0.300,2378.000,0.500,103.000,1.000,56.000,5.000,0
"07/10/06","11:14:19","AMMA06",37107.000,"cc",28350.555,6.00,2835.056,1,6,0.100,19381.000,0.200,15225.000,0.300,2323.000,0.500,126.000,1.000,52.000,5.000,0